This demonstration page uses our WeatherBlox Daily Observations layout. Learn more.

39.92423, -83.80882

Hourly Observations for October 1, 2020

Temp ( °F °C ) Dew Point ( °F °C ) Humidity (%) Winds ( mph kmh ) Pressure ( in mb ) Visibility ( mi km ) Precip ( " mm )
12:56 am 00:56 Clear 48 8.9 44 6.7 86 86 SSW 7 11 29.93 1014 10 16.0934 0 0
1:56 am 01:56 Clear 47 8.3 44 6.7 90 90 SSW 7 11 29.94 1014 10 16.0934 0 0
2:56 am 02:56 Clear 47 8.3 45 7.2 93 93 SSW 6 9 29.95 1014 10 16.0934 0.01 0.254
3:56 am 03:56 Clear 47 8.3 44 6.7 90 90 SSW 7 11 29.94 1014 10 16.0934 0 0
4:56 am 04:56 Clear 46 7.8 44 6.7 93 93 SSW 6 9 29.95 1014 10 16.0934 0 0
5:56 am 05:56 Clear 46 7.8 44 6.7 93 93 SSW 6 9 29.96 1014 10 16.0934 0 0
6:56 am 06:56 Clear 45 7.2 43 6.1 93 93 SSW 6 9 29.98 1015 10 16.0934 0 0
7:56 am 07:56 Sunny 44 6.7 44 6.7 100 100 SSW 7 11 29.98 1015 10 16.0934 0 0
8:56 am 08:56 Sunny 49 9.4 45 7.2 86 86 SW 7 11 29.98 1015 10 16.0934 0 0
9:56 am 09:56 Sunny 54 12.2 45 7.2 72 72 SW 9 15 29.99 1016 10 16.0934 0 0
10:56 am 10:56 Sunny 58 14.4 45 7.2 62 62 SW 6 9 29.99 1016 10 16.0934 0.01 0.254
11:56 am 11:56 Sunny 64 17.8 42 5.6 45 45 W 10 17 29.99 1016 10 16.0934 0 0
12:56 pm 12:56 Cloudy 63 17.2 43 6.1 48 48 W 12 19 29.98 1015 10 16.0934 0 0
1:56 pm 13:56 Cloudy 63 17.2 39 3.9 41 41 W 14 22 29.98 1015 10 16.0934 0.01 0.254
2:05 pm 14:05 Cloudy with Light Thunderstorms 61 16 37 3 42 42 WSW 12 19 29.97 1015 10 16.0934 0.001 0.001
2:20 pm 14:20 Cloudy with Light Rain 57 14 39 4 51 51 SW 12 19 29.98 1015 10 16.0934 0.001 0.001
2:34 pm 14:34 Mostly Cloudy with Nearby Thunderstorms 61 16 37 3 42 42 WSW 9 15 29.96 1014 10 16.0934 0.001 0.001
2:49 pm 14:49 Mostly Cloudy 63 17 39 4 42 42 WSW 9 15 29.95 1014 10 16.0934 0.001 0.001
2:56 pm 14:56 Mostly Cloudy 63 17.2 40 4.4 43 43 W 12 19 29.98 1015 10 16.0934 0.001 0.001
3:56 pm 15:56 Cloudy with Light Rain 52 11.1 45 7.2 77 77 VRB 5 7 30 1016 10 16.0934 0.001 0.001
4:56 pm 16:56 Sunny 59 15 42 5.6 54 54 W 10 17 30 1016 10 16.0934 0.001 0.001
5:56 pm 17:56 Sunny 58 14.4 44 6.7 60 60 SSW 7 11 29.99 1016 10 16.0934 0.01 0.254
6:23 pm 18:23 Mostly Cloudy with Nearby Thunderstorms 54 12 43 6 67 67 W 10 17 30 1016 8 12.87472 0.001 0.001
6:38 pm 18:38 Cloudy with Nearby Thunderstorms 54 12 41 5 63 63 NNW 9 15 30.01 1016 10 16.0934 0.001 0.001
6:56 pm 18:56 Mostly Cloudy 53 11.7 42 5.6 66 66 WNW 6 9 30.02 1017 10 16.0934 0.001 0.001
7:56 pm 19:56 Cloudy 50 10 44 6.7 80 80 W 7 11 30.04 1017 10 16.0934 0.001 0.001
8:56 pm 20:56 Partly Cloudy 48 8.9 45 7.2 89 89 W 6 9 30.06 1018 10 16.0934 0 0
9:56 pm 21:56 Cloudy 49 9.4 45 7.2 86 86 W 7 11 30.07 1018 10 16.0934 0 0
10:56 pm 22:56 Partly Cloudy 47 8.3 43 6.1 86 86 WNW 9 15 30.08 1019 10 16.0934 0 0
11:56 pm 23:56 Clear 45 7.2 43 6.1 93 93 WNW 7 11 30.08 1019 10 16.0934 0 0

Powered by AerisWeather